軌道要素
Epoch 2014 Dec. 9.0 TT = JDT 2457000.5
T 2014 Dec. 27.64477 TT MPCW
q 2.3511767 (2000.0) P Q
n 0.07033175 Peri. 145.30104 +0.63705219 -0.76862523
a 5.8125729 Node 265.05473 +0.69334365 +0.60434325
e 0.5955016 Incl. 3.34528 +0.33680721 +0.20972482
P 14.0
From 70 observations 2014 June 30-Nov. 18, mean residual 0".5.
|